Regional Weather Roundup
Issued by NWS Northern Indiana

Home | Current Version | Previous Version | Graphics & Text | Print | Product List | Glossary On
Versions: 1 2 3 4 5 6 7 8 9 10 11 12 13 14 15 16 17 18 19 20 21 22 23 24 25 26 27 28 29 30 31 32 33 34 35 36 37 38 39 40 41 42 43 44 45 46 47 48 49 50
000
ASUS43 KIWX 240200
RWRIWX

KIWX WEATHER ROUNDUP
NATIONAL WEATHER SERVICE NORTHERN INDIANA
1000 PM EDT TUE AUG 23 2016

NOTE: "FAIR" INDICATES FEW OR NO CLOUDS BELOW 12,000 FEET WITH NO
SIGNIFICANT WEATHER AND/OR OBSTRUCTIONS TO VISIBILITY.

* THESE STATIONS ARE NOT UNDER NWS QUALITY CONTROL. THEY ALSO MAY NOT
  REPORT WEATHER SUCH AS PRECIPITATION OR FOG.

INZ001>027-240300-
NORTHERN INDIANA

CITY           SKY/WX    TMP DP  RH WIND       PRES   REMARKS
GARY*          CLOUDY    75  63  64 SE6       30.14F
KNOX*          CLOUDY    66  45  45 SE6       30.17R
SOUTH BEND     PTCLDY    70  61  73 S8        30.17F
GOSHEN         PTCLDY    68  59  73 SE5       30.19R
MONTICELLO*    CLOUDY    71  60  67 CALM      30.17S
ANGOLA*        CLEAR     64  55  72 CALM      30.21S
FORT WAYNE     MOCLDY    68  61  78 S7        30.21S
PERU/GRISSOM   PTCLDY    68  62  81 S7        30.17F

$$
INZ028>050-240300-
CENTRAL INDIANA

CITY           SKY/WX    TMP DP  RH WIND       PRES   REMARKS
LAFAYETTE      CLOUDY    71  65  81 SE5       30.16S
KOKOMO*        MOCLDY    64  57  77 SE7       30.19F
MUNCIE*        PTCLDY    73  61  65 S3        30.21S
INDIANAPOLIS   CLOUDY    72  63  73 SE7       30.18S

$$
MIZ043>046-050>051-056>058-064>065-071>073-077>080-240300-
SOUTHWEST LOWER MICHIGAN

CITY           SKY/WX    TMP DP  RH WIND       PRES   REMARKS
BATTLE CREEK   CLEAR     68  61  78 SE6       30.20S
BENTON HARBOR  PTCLDY    69  61  75 E5        30.15S
COLDWATER*     PTCLDY    63  61  94 SE5       30.20S
HILLSDALE*     CLEAR     62  60  91 CALM      30.21F
HOLLAND        PTCLDY    68  62  81 SE6       30.17R
GRAND RAPIDS   PTCLDY    68  59  73 S6        30.18S
KALAMAZOO      CLEAR     71  59  65 S5        30.18S
STURGIS*       CLEAR     69  60  72 SE6       30.19S
THREE RIVERS*  FAIR      68  61  78 CALM      30.19S

$$
OHZ001>008-015>018-024>025-240300-
NORTHWEST OHIO

CITY           SKY/WX    TMP DP  RH WIND       PRES   REMARKS
DEFIANCE       PTCLDY    68  60  75 CALM      30.21S
FINDLAY        PTCLDY    70  60  70 SE7       30.22S
TOLEDO EXPRESS CLEAR     66  63  90 CALM      30.22R
TOLEDO METCALF CLEAR     69  62  78 S5        30.23R
LIMA           PTCLDY    68  62  81 S3        30.23S

$$
AND FOR LAKE MICHIGAN COASTAL AND OPEN LAKE BUOY OBSERVATIONS

STATION/POSITION TEMP    WIND        PRES    VSBY  WAVE
                 AIR SEA DIR/SP/G                  HT/PER
                 (F)     (DEG/KT/KT) (MB)    (MI)  (FT/S)
CALUMET HARBOR    77                 1019.7F
MICHIGAN CITY     74     160/  8/ 10   N/A
BURNS HARBOR      76     180/  5/ 16 1021.0F
SAINT JOSEPH      73     170/  2/  5 1021.7R
SOUTH LAKE BUOY   76 75  160/ 16/ 17 1019.4          2/ 4
4 MI NW BRIDGMAN  75 75  170/  8/ 10 1020.5F         1/ 3
MICHIGAN CITY     75 73  180/  8/ 10   N/A           1/ 3

$$
&&




USA.gov is the U.S. government's official web portal to all federal, state and local government web resources and services.